575  
ASUS44 KHUN 210710  
RWRHUN  
 
WEATHER ROUNDUP FOR THE TENNESSEE VALLEY  
NATIONAL WEATHER SERVICE HUNTSVILLE AL  
200 AM CDT SAT SEP 21 2019  
 
ALZ001>004-210800-  
NORTHWEST ALABAMA  
 
CITY SKY/WX TMP DP RH WIND PRES REMARKS
 
SHOALS AIRPORT FAIR 66 58 75 SE5 30.21S  

 
 
ALZ005>007-016-210800-  
NORTH CENTRAL ALABAMA  
 
CITY SKY/WX TMP DP RH WIND PRES REMARKS
 
DECATUR AP FAIR 67 58 72 E3 30.23S  
HUNTSVILLE AP FAIR 66 59 78 SE5 30.23S  
HUN NWS/UAH N/A 71 55 57 SE3 N/A  
MERIDIANVILLE CLEAR 64 59 86 CALM 30.24S  
VINEMONT AP FAIR 67 55 63 CALM 30.26F  

 
 
ALZ008>010-210800-  
NORTHEAST ALABAMA  
 
CITY SKY/WX TMP DP RH WIND PRES REMARKS
 
ALBERTVILLE FAIR 64 54 68 E5 30.26S  
FORT PAYNE FAIR 59 56 91 CALM 30.25F  
SCOTTSBORO AP FAIR 61 61 100 CALM 30.26S  

 
 
TNZ076-096-097-210800-  
SOUTHEASTERN MIDDLE TENNESSEE  
 
CITY SKY/WX TMP DP RH WIND PRES REMARKS
 
FAYETTEVILLE CLEAR 64 57 77 S3 30.23F  
TULLAHOMA CLEAR 61 57 88 CALM 30.24F  
WINCHESTER CLEAR 68 55 64 S5 30.25S  

 
   
..SURROUNDING SITES
 
 
 
CITY SKY/WX TMP DP RH WIND PRES REMARKS
 
ATLANTA FAIR 67 51 56 E6 30.28F  
ANNISTON FAIR 62 57 83 NE5 30.26S  
BIRMINGHAM FAIR 72 51 47 VRB3 30.25S  
CHATTANOOGA FAIR 67 59 75 CALM 30.27S  
CORINTH FAIR 64 64 100 CALM 30.19S  
DALTON FAIR 61 55 82 CALM 30.29F  
GADSDEN FAIR 58 56 93 CALM 30.26S  
GOLDEN TRNGL FAIR 70 60 70 SE5 30.19S  
HALEYVILLE FAIR 63 58 83 SE3 30.25S  
JACKSON TN FAIR 65 63 93 SE3 30.18S  
MEMPHIS FAIR 73 64 73 S9 30.15S  
NASHVILLE FAIR 72 58 61 S3 30.23R  
OXFORD MS FAIR 70 61 73 SE6 30.18F  
ROME FAIR 59 55 87 CALM 30.27S  
SAVANNAH CLEAR 66 63 88 CALM 30.19S  
SELMER CLEAR 70 63 78 S6 30.18S  
TUPELO FAIR 68 62 81 CALM 30.18S  
TUSCALOOSA FAIR 64 59 83 CALM 30.20S  

 
 
 
 
CLICK HERE TO GO TO PREVIOUS BULLETINS.

The Nexlab AL Page
The Nexlab TN Page Main Text Page